Regional Weather Roundup
Issued by NWS

Home | Current Version | Previous Version | Graphics & Text | Print | Product List | Glossary On
Versions: 1 2 3 4 5 6 7 8 9 10 11 12 13 14 15 16 17 18 19 20 21 22 23 24 25 26 27 28 29 30 31 32 33 34 35 36 37 38 39 40 41 42 43 44 45 46 47 48 49 50
221
ASUS43 KDMX 300603
RWRIA

WEATHER ROUNDUP FOR IOWA
NATIONAL WEATHER SERVICE DES MOINES IA
100 AM CDT FRI SEP 30 2016

NOTE: "FAIR" INDICATES FEW OR NO CLOUDS BELOW 12,000 FEET WITH NO
SIGNIFICANT WEATHER AND/OR OBSTRUCTIONS TO VISIBILITY.

* - THESE STATIONS ARE NOT NWS STATIONS...THUS NOT UNDER NWS
QUALITY CONTROL.  THEY ALSO DO NOT REPORT WEATHER SUCH
AS PRECIPITATION OR FOG.

IAZ001>003-012>014-020>022-031>034-043>046-300700-
   NORTHWEST IOWA

CITY           SKY/WX    TMP DP  RH WIND       PRES   REMARKS
CARROLL *      PTCLDY    50  46  87 N5        30.34S
CHEROKEE *     CLEAR     46  46 100 CALM      30.36F
DENISON *      CLEAR     45  45 100 CALM      30.32F
LE MARS *      CLEAR     46  45  93 CALM      30.36F
SHELDON *      CLEAR     48  46  93 E8        30.35F
SIOUX CITY     CLEAR     48  46  93 CALM      30.35F
6HR MIN TEMP:  46; 6HR MAX TEMP:  67;

SPENCER        CLEAR     44  43  96 CALM      30.37S
6HR MIN TEMP:  42; 6HR MAX TEMP:  60;

STORM LAKE *   CLEAR     54  46  76 NE8       30.36S
$$

IAZ055>058-069>071-079>083-090>094-300700-
   SOUTHWEST IOWA

CITY           SKY/WX    TMP DP  RH WIND       PRES   REMARKS
ATLANTIC *     CLEAR     46  45  93 N5        30.33F
AUDUBON *      CLEAR     50  46  87 CALM      30.34F
CLARINDA *       N/A     50  48  93 MISG      30.32F FOG
COUNCIL BLFS * CLEAR     54  46  76 N7        30.32F
CRESTON *      CLEAR     54  48  82 N8        30.32F
HARLAN  *      CLEAR     48  46  93 N3        30.36F
LAMONI         CLEAR     53  48  83 N7        30.29F
6HR MIN TEMP:  53; 6HR MAX TEMP:  63;

RED OAK *      CLEAR     48  46  93 CALM      30.32F
SHENANDOAH *   CLEAR     48  46  93 CALM      30.32F
$$

IAZ047>049-059>061-072>074-084-300700-
   CENTRAL IOWA

CITY           SKY/WX    TMP DP  RH WIND       PRES   REMARKS
AMES           CLEAR     55  51  86 NE6       30.31F
6HR MIN TEMP:  55; 6HR MAX TEMP:  65;

ANKENY *         N/A    N/A N/A N/A MISG        N/A
BOONE *        CLEAR     54  48  82 NE7       30.31F HAZE
CHARITON *       N/A     52  48  87 N8        30.28F
DES MOINES     CLEAR     59  49  69 NE8       30.30F
6HR MIN TEMP:  59; 6HR MAX TEMP:  70;

GRINNELL*      CLEAR     56  50  81 N7        30.29F
KNOXVILLE *    CLEAR     59  50  72 NE6       30.27F
MARSHALLTOWN   CLEAR     54  51  90 NE8       30.30F
6HR MIN TEMP:  54; 6HR MAX TEMP:  64;

NEWTON *       CLEAR     55  50  82 N9        30.29F
PELLA *        CLEAR     56  50  80 N3        30.29F
PERRY *          N/A     51  49  92 N5        30.32F
$$

IAZ004>006-015-016-023>025-035-036-300700-
   NORTH CENTRAL IOWA

CITY           SKY/WX    TMP DP  RH WIND       PRES   REMARKS
ALGONA *       CLEAR     48  46  93 N3        30.36S
CLARION *      CLEAR     48  48 100 NE6       30.34F
ESTHERVILLE    CLEAR     43  43 100 NE3       30.36F
6HR MIN TEMP:  43; 6HR MAX TEMP:  59;

FORT DODGE *   CLEAR     48  45  87 CALM      30.35F
MASON CITY     CLEAR     47  45  93 NW3       30.36F
6HR MIN TEMP:  46; 6HR MAX TEMP:  63;

FOREST CITY *    N/A     48  45  87 CALM      30.35F
WEBSTER CITY * CLEAR     48  48 100 N7        30.32S
IOWA FALLS *     N/A     55  50  84 CALM      30.34S
$$

IAZ007>011-017>019-026>030-037>042-050>054-066-300700-
   NORTHEAST IOWA

CITY           SKY/WX    TMP DP  RH WIND       PRES   REMARKS
CEDAR RAPIDS   CLEAR     53  50  89 N9        30.27F
6HR MIN TEMP:  53; 6HR MAX TEMP:  67;

CHARLES CITY * CLEAR     54  50  87 N6        30.34F
CLINTON *      CLEAR     56  52  86 N7        30.24F
DECORAH *      CLEAR     54  54 100 NE5       30.32F
DUBUQUE        CLEAR     54  47  77 NE8       30.27F
6HR MIN TEMP:  54; 6HR MAX TEMP:  64;

MONTICELLO *   CLEAR     54  46  76 N6        30.27F
OELWEIN *      CLEAR     54  52  94 N8        30.31F
WATERLOO       CLEAR     52  48  86 N5        30.31F
6HR MIN TEMP:  52; 6HR MAX TEMP:  63;

$$

IAZ064-065-067-068-078-300700-
   EAST CENTRAL IOWA

CITY           SKY/WX    TMP DP  RH WIND       PRES   REMARKS
DAVENPORT      CLEAR     54  51  90 NW7       30.24F
6HR MIN TEMP:  53; 6HR MAX TEMP:  66;

IOWA CITY      CLEAR     58  49  72 N7        30.27F
6HR MIN TEMP:  58; 6HR MAX TEMP:  69;

MUSCATINE *    CLEAR     57  52  82 CALM      30.24F
QUAD CITIES    MOCLDY    62  51  67 N8        30.22F
6HR MIN TEMP:  61; 6HR MAX TEMP:  68;

$$

IAZ062-063-075>077-085>089-095>099-300700-
   SOUTHEAST IOWA

CITY           SKY/WX    TMP DP  RH WIND       PRES   REMARKS
BURLINGTON     CLOUDY    61  54  77 N9        30.22F
6HR MIN TEMP:  60; 6HR MAX TEMP:  70;

FAIRFIELD *    CLEAR     55  48  76 N7        30.25F
FORT MADISON * PTCLDY    55  54  94 N5        30.23F
KEOKUK *       CLEAR     61  54  77 N3        30.21F
OSKALOOSA *      N/A     54  49  85 N7        30.27F
OTTUMWA        CLEAR     56  49  77 N7        30.27F
6HR MIN TEMP:  56; 6HR MAX TEMP:  68;

WASHINGTON *     N/A    N/A N/A N/A MISG        N/A
$$

ABBREVIATIONS USED IN REMARKS
   TC - TEMPERATURES IN CELSIUS
  WCI - WIND CHILL INDEX
   HX - HEAT INDEX
  VSB - VISIBILITY
$$





USA.gov is the U.S. government's official web portal to all federal, state and local government web resources and services.